Weather Roundup
Issued by NWS Chicago, IL

Home | Current Version | Previous Version | Graphics & Text | Print | Product List | Glossary On
Versions: 1 2 3 4 5 6 7 8 9 10 11 12 13 14 15 16 17 18 19 20 21 22 23 24 25 26 27 28 29 30 31 32 33 34 35 36 37 38 39 40 41 42 43 44 45 46 47 48 49 50
000
NZUS59 KLOT 261104
HRRLOT

CHICAGO AREA WEATHER ROUNDUP
NATIONAL WEATHER SERVICE CHICAGO/ROMEOVILLE IL
600 AM CDT MON JUN 26 2017

NOTE: "FAIR" INDICATES FEW OR NO CLOUDS BELOW 12,000 FEET WITH NO
SIGNIFICANT WEATHER AND/OR OBSTRUCTIONS TO VISIBILITY.

* THESE STATIONS ARE NOT UNDER NWS QUALITY CONTROL. THEY ALSO MAY NOT
  REPORT WEATHER SUCH AS PRECIPITATION OR FOG.

ILZ005-006-012>014-019>023-261200-
NORTHEAST ILLINOIS

CITY           SKY/WX    TMP DP  RH WIND       PRES   REMARKS
OHARE          PTCLDY    56  49  77 W8        30.11R
MIDWAY         PTCLDY    56  50  80 W8        30.12R
AURORA         CLEAR     52  49  89 CALM      30.13R
LANSING*       CLEAR     53  48  84 W6        30.13R
JOLIET*        CLEAR     55  51  85 W5        30.14R
WAUKEGAN       CLEAR     53  52  96 CALM      30.10R
DUPAGE AIRPORT CLOUDY    52  50  93 W5        30.12R
WHEELING       CLEAR     55  51  86 W6        30.13R
MORRIS*        CLEAR     53  49  88 W7        30.12F
LEWIS AIRPORT* CLEAR     52  47  84 W5        30.13R
$$

WIZ051-052-058>065-066-070>072-261200-
SOUTHEAST WISCONSIN

CITY           SKY/WX    TMP DP  RH WIND       PRES   REMARKS
MILWAUKEE      PTCLDY    55  48  77 W7        30.08R
KENOSHA*       CLEAR     51  49  92 W6        30.10R
RACINE*        CLEAR     53  48  83 W5        30.10R
WAUKESHA       CLEAR     48  46  93 W6        30.10R
$$

INZ001>003-010>013-019-020-261200-
NORTHWEST INDIANA

CITY           SKY/WX    TMP DP  RH WIND       PRES   REMARKS
GARY*          PTCLDY    52  48  87 W7        30.13R
MICHIGAN CITY* NOT AVBL
RENSSELAER*    NOT AVBL
VALPARAISO     CLEAR     54  50  86 SW6       30.12R
$$

LMZ740>746-261200-
SOUTHERN LAKE MICHIGAN

STATION/POSITION TIME  SKY/WX   TEMP WIND        PRES    VSBY
                                AIR  DIR/SP/G
                 (UTC)          (F)  (DEG/KT/KT) (MB)    (MI)
HARRISON CRIB    1040            60  270/ 13/ 15   N/A
BURNHAM HARBOR   1100            59                N/A
CALUMET HARBOR   1030            56  240/  4/  5 1019.2R
BURNS HARBOR     1040            58  240/  7/ 10 1020.0R
MICHIGAN CITY    1040            58  210/ 10/ 13   N/A
$$

ABBREVIATIONS USED IN REMARKS
   TC - TEMPERATURE IN CELSIUS
  WCI - WIND CHILL INDEX
   HX - HEAT INDEX
  VSB - VISIBILITY
$$




USA.gov is the U.S. government's official web portal to all federal, state and local government web resources and services.